Time,TemperatureF,DewpointF,PressureIn,WindDirection,WindDirectionDegrees,WindSpeedMPH,WindSpeedGustMPH,Humidity,HourlyPrecipIn,Conditions,Clouds,dailyrainin,SoftwareType,DateUTC
2013-02-14 00:00:00,32.0,25.0,27.11,WNW,292,3.6,5.6,75,0.00,,---,0.00,VWS V14.01,2013-02-14 06:00:00,
2013-02-14 00:05:00,32.0,25.0,27.11,WSW,248,4.3,4.3,75,0.00,,---,0.00,VWS V14.01,2013-02-14 06:05:00,
2013-02-14 00:10:00,30.9,23.0,27.11,NW,315,2.7,4.3,72,0.00,,---,0.00,VWS V14.01,2013-02-14 06:10:00,
2013-02-14 00:15:00,30.9,23.0,27.11,West,270,2.7,2.7,72,0.00,,---,0.00,VWS V14.01,2013-02-14 06:15:00,
2013-02-14 00:20:00,30.9,23.0,27.11,WNW,292,4.7,4.7,72,0.00,,---,0.00,VWS V14.01,2013-02-14 06:20:00,
2013-02-14 00:25:00,30.9,23.0,27.14,NW,315,1.1,4.7,72,0.00,,---,0.00,VWS V14.01,2013-02-14 06:25:00,
2013-02-14 00:30:00,28.4,21.5,27.14,WNW,292,2.7,2.7,75,0.00,,---,0.00,VWS V14.01,2013-02-14 06:30:00,
2013-02-14 00:35:00,28.4,21.5,27.14,WNW,292,2.7,2.7,75,0.00,,---,0.00,VWS V14.01,2013-02-14 06:35:00,
2013-02-14 00:40:00,28.4,21.5,27.14,West,270,4.0,4.9,75,0.00,,---,0.00,VWS V14.01,2013-02-14 06:40:00,
2013-02-14 00:45:00,29.5,26.4,27.14,NW,315,6.0,6.0,88,0.00,,---,0.00,VWS V14.01,2013-02-14 06:45:00,
2013-02-14 00:50:00,29.5,26.4,27.14,NNW,338,8.5,8.7,88,0.00,,---,0.00,VWS V14.01,2013-02-14 06:50:00,
2013-02-14 00:55:00,29.5,26.4,27.14,NW,315,7.6,9.6,88,0.00,,---,0.00,VWS V14.01,2013-02-14 06:55:00,
2013-02-14 01:00:00,31.5,28.0,27.14,NW,315,7.4,9.6,87,0.00,,---,0.00,VWS V14.01,2013-02-14 07:00:00,
2013-02-14 01:05:00,32.0,28.3,27.14,NW,315,10.1,10.1,86,0.00,,---,0.00,VWS V14.01,2013-02-14 07:05:00,
2013-02-14 01:10:00,32.5,28.5,27.14,NW,315,7.8,10.1,85,0.00,,---,0.00,VWS V14.01,2013-02-14 07:10:00,
2013-02-14 01:15:00,32.7,28.4,27.14,NW,315,8.7,10.1,84,0.00,,---,0.00,VWS V14.01,2013-02-14 07:15:00,
2013-02-14 01:20:00,32.7,28.4,27.14,NW,315,6.3,10.1,84,0.00,,---,0.00,VWS V14.01,2013-02-14 07:20:00,
2013-02-14 01:25:00,32.4,27.2,27.14,NW,315,6.3,10.1,81,0.00,,---,0.00,VWS V14.01,2013-02-14 07:25:00,
2013-02-14 01:30:00,31.5,25.7,27.14,NW,315,6.3,10.1,79,0.00,,---,0.00,VWS V14.01,2013-02-14 07:30:00,
2013-02-14 01:35:00,31.5,25.7,27.14,WNW,292,3.1,6.3,79,0.00,,---,0.00,VWS V14.01,2013-02-14 07:35:00,
2013-02-14 01:40:00,31.5,25.7,27.14,West,270,3.4,6.3,79,0.00,,---,0.00,VWS V14.01,2013-02-14 07:40:00,
2013-02-14 01:45:00,31.5,25.7,27.14,West,270,4.9,6.3,79,0.00,,---,0.00,VWS V14.01,2013-02-14 07:45:00,
2013-02-14 01:50:00,30.0,26.4,27.14,NW,315,4.9,4.9,86,0.00,,---,0.00,VWS V14.01,2013-02-14 07:50:00,
2013-02-14 01:55:00,29.7,25.7,27.14,NW,315,3.8,6.3,85,0.00,,---,0.00,VWS V14.01,2013-02-14 07:55:00,
2013-02-14 02:00:00,29.7,25.7,27.14,WNW,292,3.1,6.3,85,0.00,,---,0.00,VWS V14.01,2013-02-14 08:00:00,
2013-02-14 02:05:00,30.0,26.6,27.11,West,270,5.8,6.9,87,0.00,,---,0.00,VWS V14.01,2013-02-14 08:05:00,
2013-02-14 02:10:00,30.0,26.6,27.11,West,270,3.1,6.9,87,0.00,,---,0.00,VWS V14.01,2013-02-14 08:10:00,
2013-02-14 02:15:00,30.6,26.6,27.11,WNW,292,8.7,8.7,85,0.00,,---,0.00,VWS V14.01,2013-02-14 08:15:00,
2013-02-14 02:20:00,30.7,26.8,27.14,West,270,3.4,8.7,85,0.00,,---,0.00,VWS V14.01,2013-02-14 08:20:00,
2013-02-14 02:25:00,30.7,26.5,27.14,West,270,4.3,8.7,84,0.00,,---,0.00,VWS V14.01,2013-02-14 08:25:00,
2013-02-14 02:30:00,30.7,26.2,27.14,West,270,4.5,8.7,83,0.00,,---,0.00,VWS V14.01,2013-02-14 08:30:00,
2013-02-14 02:35:00,30.6,25.7,27.11,NW,315,6.3,6.3,82,0.00,,---,0.00,VWS V14.01,2013-02-14 08:35:00,
2013-02-14 02:40:00,30.7,26.2,27.11,West,270,2.9,6.5,83,0.00,,---,0.00,VWS V14.01,2013-02-14 08:40:00,
2013-02-14 02:45:00,30.7,26.2,27.11,NNW,338,3.4,6.5,83,0.00,,---,0.00,VWS V14.01,2013-02-14 08:45:00,
2013-02-14 02:50:00,30.2,25.4,27.11,NNW,338,3.8,6.5,82,0.00,,---,0.00,VWS V14.01,2013-02-14 08:50:00,
2013-02-14 02:55:00,30.2,25.4,27.14,West,270,2.0,6.5,82,0.00,,---,0.00,VWS V14.01,2013-02-14 08:55:00,
2013-02-14 03:00:00,30.2,25.4,27.14,NW,315,1.1,6.5,82,0.00,,---,0.00,VWS V14.01,2013-02-14 09:00:00,
2013-02-14 03:05:00,30.2,25.4,27.14,NW,315,2.7,6.5,82,0.00,,---,0.00,VWS V14.01,2013-02-14 09:05:00,
2013-02-14 03:10:00,30.2,25.4,27.14,North,0,2.2,6.5,82,0.00,,---,0.00,VWS V14.01,2013-02-14 09:10:00,
2013-02-14 03:15:00,27.5,21.9,27.14,NW,315,4.9,6.5,79,0.00,,---,0.00,VWS V14.01,2013-02-14 09:15:00,
2013-02-14 03:20:00,27.5,21.9,27.14,NW,315,6.5,6.5,79,0.00,,---,0.00,VWS V14.01,2013-02-14 09:20:00,
2013-02-14 03:25:00,29.7,26.8,27.14,NW,315,3.6,6.5,89,0.00,,---,0.00,VWS V14.01,2013-02-14 09:25:00,
2013-02-14 03:30:00,29.5,25.8,27.14,NW,315,2.5,6.5,86,0.00,,---,0.00,VWS V14.01,2013-02-14 09:30:00,
2013-02-14 03:35:00,29.5,25.5,27.14,NW,315,3.4,6.5,85,0.00,,---,0.00,VWS V14.01,2013-02-14 09:35:00,
2013-02-14 03:40:00,29.5,25.5,27.14,WNW,292,3.6,6.5,85,0.00,,---,0.00,VWS V14.01,2013-02-14 09:40:00,
2013-02-14 03:45:00,29.7,25.4,27.14,West,270,2.7,6.5,84,0.00,,---,0.00,VWS V14.01,2013-02-14 09:45:00,
2013-02-14 03:50:00,29.5,25.0,27.14,West,270,1.1,2.7,83,0.00,,---,0.00,VWS V14.01,2013-02-14 09:50:00,
2013-02-14 03:55:00,29.5,25.0,27.14,WSW,248,3.1,3.1,83,0.00,,---,0.00,VWS V14.01,2013-02-14 09:55:00,
2013-02-14 04:00:00,29.5,25.0,27.14,WNW,292,2.7,3.1,83,0.00,,---,0.00,VWS V14.01,2013-02-14 10:00:00,
2013-02-14 04:05:00,28.6,23.5,27.14,NW,315,5.8,5.8,81,0.00,,---,0.00,VWS V14.01,2013-02-14 10:05:00,
2013-02-14 04:10:00,28.6,23.5,27.11,West,270,2.7,8.1,81,0.00,,---,0.00,VWS V14.01,2013-02-14 10:10:00,
2013-02-14 04:15:00,29.5,25.2,27.11,NW,315,3.8,8.1,84,0.00,,---,0.00,VWS V14.01,2013-02-14 10:15:00,
2013-02-14 04:20:00,29.5,25.2,27.11,NW,315,3.8,4.0,84,0.00,,---,0.00,VWS V14.01,2013-02-14 10:20:00,
2013-02-14 04:25:00,29.5,25.2,27.11,NW,315,3.8,4.0,84,0.00,,---,0.00,VWS V14.01,2013-02-14 10:25:00,
2013-02-14 04:30:00,29.5,25.2,27.14,WNW,292,3.4,4.0,84,0.00,,---,0.00,VWS V14.01,2013-02-14 10:30:00,
2013-02-14 04:35:00,28.9,23.6,27.14,West,270,2.9,3.4,80,0.00,,---,0.00,VWS V14.01,2013-02-14 10:35:00,
2013-02-14 04:40:00,28.9,23.6,27.14,NW,315,2.7,3.4,80,0.00,,---,0.00,VWS V14.01,2013-02-14 10:40:00,
2013-02-14 04:45:00,28.4,23.0,27.14,NW,315,0.0,3.4,80,0.00,,---,0.00,VWS V14.01,2013-02-14 10:45:00,
2013-02-14 04:50:00,28.4,23.0,27.14,NW,315,0.0,0.0,80,0.00,,---,0.00,VWS V14.01,2013-02-14 10:50:00,
2013-02-14 04:55:00,27.0,21.0,27.14,North,0,0.0,0.0,78,0.00,,---,0.00,VWS V14.01,2013-02-14 10:55:00,
2013-02-14 05:00:00,26.6,21.0,27.14,West,270,0.0,0.0,79,0.00,,---,0.00,VWS V14.01,2013-02-14 11:00:00,
2013-02-14 05:05:00,26.6,21.0,27.14,NW,315,1.6,1.6,79,0.00,,---,0.00,VWS V14.01,2013-02-14 11:05:00,
2013-02-14 05:10:00,26.6,21.0,27.14,NW,315,6.3,6.7,79,0.00,,---,0.00,VWS V14.01,2013-02-14 11:10:00,
2013-02-14 05:15:00,26.6,21.0,27.14,NW,315,6.5,6.7,79,0.00,,---,0.00,VWS V14.01,2013-02-14 11:15:00,
2013-02-14 05:20:00,28.2,24.9,27.14,NNW,338,7.8,7.8,87,0.00,,---,0.00,VWS V14.01,2013-02-14 11:20:00,
2013-02-14 05:25:00,28.2,24.9,27.14,NW,315,7.8,9.8,87,0.00,,---,0.00,VWS V14.01,2013-02-14 11:25:00,
2013-02-14 05:30:00,28.2,24.9,27.14,NW,315,7.8,9.8,87,0.00,,---,0.00,VWS V14.01,2013-02-14 11:30:00,
2013-02-14 05:35:00,30.0,25.5,27.14,NNW,338,7.6,8.1,83,0.00,,---,0.00,VWS V14.01,2013-02-14 11:35:00,
2013-02-14 05:40:00,30.6,25.7,27.11,NNW,338,9.8,10.5,82,0.00,,---,0.00,VWS V14.01,2013-02-14 11:40:00,
2013-02-14 05:45:00,31.1,25.4,27.11,NW,315,8.5,10.5,79,0.00,,---,0.00,VWS V14.01,2013-02-14 11:45:00,
2013-02-14 05:50:00,31.1,25.4,27.11,NW,315,7.2,10.5,79,0.00,,---,0.00,VWS V14.01,2013-02-14 11:50:00,
2013-02-14 05:55:00,31.1,25.4,27.14,NW,315,8.1,10.5,79,0.00,,---,0.00,VWS V14.01,2013-02-14 11:55:00,
2013-02-14 06:00:00,32.0,25.6,27.14,NW,315,7.2,10.5,77,0.00,,---,0.00,VWS V14.01,2013-02-14 12:00:00,
2013-02-14 06:05:00,32.0,25.3,27.14,North,0,5.4,5.4,76,0.00,,---,0.00,VWS V14.01,2013-02-14 12:05:00,
2013-02-14 06:10:00,32.0,25.3,27.14,NW,315,6.5,6.5,76,0.00,,---,0.00,VWS V14.01,2013-02-14 12:10:00,
2013-02-14 06:15:00,32.0,25.3,27.14,North,0,7.4,7.4,76,0.00,,---,0.00,VWS V14.01,2013-02-14 12:15:00,
2013-02-14 06:20:00,32.0,25.3,27.14,North,0,9.8,9.8,76,0.00,,---,0.00,VWS V14.01,2013-02-14 12:20:00,
2013-02-14 06:25:00,32.0,25.3,27.14,North,0,8.1,10.7,76,0.00,,---,0.00,VWS V14.01,2013-02-14 12:25:00,
2013-02-14 06:30:00,32.2,25.5,27.14,North,0,6.3,10.7,76,0.00,,---,0.00,VWS V14.01,2013-02-14 12:30:00,
2013-02-14 06:35:00,32.2,25.5,27.11,NNW,338,6.5,6.5,76,0.00,,---,0.00,VWS V14.01,2013-02-14 12:35:00,
2013-02-14 06:40:00,32.2,25.2,27.11,NW,315,6.5,7.8,75,0.00,,---,0.00,VWS V14.01,2013-02-14 12:40:00,
2013-02-14 06:45:00,32.2,25.2,27.11,North,0,6.0,7.8,75,0.00,,---,0.00,VWS V14.01,2013-02-14 12:45:00,
2013-02-14 06:50:00,32.2,25.2,27.14,North,0,6.0,7.6,75,0.00,,---,0.00,VWS V14.01,2013-02-14 12:50:00,
2013-02-14 06:55:00,32.2,25.2,27.14,NW,315,4.3,7.6,75,0.00,,---,0.00,VWS V14.01,2013-02-14 12:55:00,
2013-02-14 07:00:00,32.5,25.5,27.14,NW,315,8.1,8.5,75,0.00,,---,0.00,VWS V14.01,2013-02-14 13:00:00,
2013-02-14 07:05:00,32.5,25.5,27.14,NW,315,6.3,8.7,75,0.00,,---,0.00,VWS V14.01,2013-02-14 13:05:00,
2013-02-14 07:10:00,32.5,25.5,27.14,NNW,338,7.4,8.7,75,0.00,,---,0.00,VWS V14.01,2013-02-14 13:10:00,
2013-02-14 07:15:00,32.5,25.5,27.14,NNW,338,6.9,8.7,75,0.00,,---,0.00,VWS V14.01,2013-02-14 13:15:00,
2013-02-14 07:20:00,32.5,25.5,27.14,NW,315,4.9,6.3,75,0.00,,---,0.00,VWS V14.01,2013-02-14 13:20:00,
2013-02-14 07:25:00,32.5,25.5,27.14,NW,315,4.9,6.3,75,0.00,,---,0.00,VWS V14.01,2013-02-14 13:25:00,
2013-02-14 07:30:00,32.5,25.5,27.14,NW,315,7.6,7.6,75,0.00,,---,0.00,VWS V14.01,2013-02-14 13:30:00,
2013-02-14 07:34:00,32.5,25.5,27.14,NW,315,4.9,7.6,75,0.00,,---,0.00,VWS V14.01,2013-02-14 13:34:00,
2013-02-14 07:39:00,32.2,25.5,27.17,West,270,3.6,7.6,76,0.00,,---,0.00,VWS V14.01,2013-02-14 13:39:00,
2013-02-14 07:44:00,32.2,25.5,27.17,West,270,2.5,7.6,76,0.00,,---,0.00,VWS V14.01,2013-02-14 13:44:00,
2013-02-14 07:45:00,33.4,26.7,27.20,NW,315,5.6,6.5,76,0.00,,---,0.00,VWS V14.01,2013-02-14 13:45:00,
2013-02-14 07:49:00,32.2,25.5,27.17,West,270,3.6,3.6,76,0.00,,---,0.00,VWS V14.01,2013-02-14 13:49:00,
2013-02-14 07:54:00,32.2,25.5,27.17,West,270,3.8,3.8,76,0.00,,---,0.00,VWS V14.01,2013-02-14 13:54:00,
2013-02-14 07:59:00,32.5,26.1,27.17,West,270,2.0,3.8,77,0.00,,---,0.00,VWS V14.01,2013-02-14 13:59:00,
2013-02-14 08:00:00,35.1,26.6,27.20,NW,315,8.1,9.0,71,0.00,,---,0.00,VWS V14.01,2013-02-14 14:00:00,
2013-02-14 08:04:00,32.5,26.1,27.17,West,270,2.5,4.3,77,0.00,,---,0.00,VWS V14.01,2013-02-14 14:04:00,
2013-02-14 08:09:00,32.5,26.1,27.17,West,270,4.0,4.3,77,0.00,,---,0.00,VWS V14.01,2013-02-14 14:09:00,
2013-02-14 08:14:00,32.5,26.1,27.17,WNW,292,2.0,4.3,77,0.00,,---,0.00,VWS V14.01,2013-02-14 14:14:00,
2013-02-14 08:15:00,36.0,26.1,27.20,NW,315,7.8,9.0,67,0.00,,---,0.00,VWS V14.01,2013-02-14 14:15:00,
2013-02-14 08:19:00,32.5,26.1,27.20,West,270,1.6,4.3,77,0.00,,---,0.00,VWS V14.01,2013-02-14 14:19:00,
2013-02-14 08:24:00,33.1,26.4,27.20,WNW,292,2.9,4.3,76,0.00,,---,0.00,VWS V14.01,2013-02-14 14:24:00,
2013-02-14 08:29:00,33.3,26.5,27.20,West,270,3.8,4.3,76,0.00,,---,0.00,VWS V14.01,2013-02-14 14:29:00,
2013-02-14 08:30:00,36.3,25.7,27.23,NW,315,12.5,12.8,65,0.00,,---,0.00,VWS V14.01,2013-02-14 14:30:00,
2013-02-14 08:34:00,33.4,26.7,27.20,NW,315,3.4,3.4,76,0.00,,---,0.00,VWS V14.01,2013-02-14 14:34:00,
2013-02-14 08:39:00,33.4,26.7,27.20,NW,315,6.3,6.3,76,0.00,,---,0.00,VWS V14.01,2013-02-14 14:39:00,
2013-02-14 08:44:00,33.4,26.7,27.20,NW,315,5.6,6.5,76,0.00,,---,0.00,VWS V14.01,2013-02-14 14:44:00,
2013-02-14 08:45:00,36.3,25.7,27.23,NW,315,10.3,12.5,65,0.00,,---,0.00,VWS V14.01,2013-02-14 14:45:00,
2013-02-14 08:49:00,33.4,26.7,27.20,NW,315,8.5,9.0,76,0.00,,---,0.00,VWS V14.01,2013-02-14 14:49:00,
2013-02-14 08:54:00,35.1,26.6,27.20,NNW,338,6.5,9.0,71,0.00,,---,0.00,VWS V14.01,2013-02-14 14:54:00,
2013-02-14 08:59:00,35.1,26.6,27.20,NW,315,8.1,9.0,71,0.00,,---,0.00,VWS V14.01,2013-02-14 14:59:00,
2013-02-14 09:00:00,37.4,25.6,27.23,NW,315,5.8,10.3,62,0.00,,---,0.00,VWS V14.01,2013-02-14 15:00:00,
2013-02-14 09:04:00,35.4,26.3,27.20,NW,315,6.3,9.0,69,0.00,,---,0.00,VWS V14.01,2013-02-14 15:04:00,
2013-02-14 09:09:00,35.4,26.3,27.20,NW,315,6.3,9.0,69,0.00,,---,0.00,VWS V14.01,2013-02-14 15:09:00,
2013-02-14 09:14:00,35.4,26.3,27.20,NW,315,4.9,9.0,69,0.00,,---,0.00,VWS V14.01,2013-02-14 15:14:00,
2013-02-14 09:15:00,37.4,25.6,27.23,North,0,10.1,10.7,62,0.00,,---,0.00,VWS V14.01,2013-02-14 15:15:00,
2013-02-14 09:19:00,36.0,26.1,27.20,NW,315,10.1,10.1,67,0.00,,---,0.00,VWS V14.01,2013-02-14 15:19:00,
2013-02-14 09:24:00,36.0,26.1,27.23,NW,315,10.7,10.7,67,0.00,,---,0.00,VWS V14.01,2013-02-14 15:24:00,
2013-02-14 09:29:00,36.3,25.7,27.23,NW,315,12.5,12.8,65,0.00,,---,0.00,VWS V14.01,2013-02-14 15:29:00,
2013-02-14 09:30:00,38.7,25.2,27.23,NW,315,7.6,13.2,58,0.00,,---,0.00,VWS V14.01,2013-02-14 15:30:00,
2013-02-14 09:34:00,36.3,25.7,27.23,NW,315,12.5,12.5,65,0.00,,---,0.00,VWS V14.01,2013-02-14 15:34:00,
2013-02-14 09:39:00,36.3,25.7,27.23,NNW,338,12.1,12.5,65,0.00,,---,0.00,VWS V14.01,2013-02-14 15:39:00,
2013-02-14 09:44:00,36.3,25.7,27.23,NW,315,8.7,12.5,65,0.00,,---,0.00,VWS V14.01,2013-02-14 15:44:00,
2013-02-14 09:45:00,38.7,25.2,27.23,NW,315,9.6,10.5,58,0.00,,---,0.00,VWS V14.01,2013-02-14 15:45:00,
2013-02-14 09:49:00,36.3,25.7,27.23,NW,315,8.7,10.3,65,0.00,,---,0.00,VWS V14.01,2013-02-14 15:49:00,
2013-02-14 09:54:00,36.3,25.7,27.23,NNW,338,8.1,10.3,65,0.00,,---,0.00,VWS V14.01,2013-02-14 15:54:00,
2013-02-14 09:59:00,37.4,25.6,27.23,NW,315,5.8,10.3,62,0.00,,---,0.00,VWS V14.01,2013-02-14 15:59:00,
2013-02-14 10:00:00,40.1,23.9,27.25,NW,315,8.7,13.0,52,0.00,,---,0.00,VWS V14.01,2013-02-14 16:00:00,
2013-02-14 10:04:00,37.4,25.6,27.23,North,0,6.7,10.5,62,0.00,,---,0.00,VWS V14.01,2013-02-14 16:04:00,
2013-02-14 10:09:00,37.4,25.6,27.23,NW,315,8.7,10.5,62,0.00,,---,0.00,VWS V14.01,2013-02-14 16:09:00,
2013-02-14 10:14:00,37.4,25.6,27.23,North,0,10.1,10.7,62,0.00,,---,0.00,VWS V14.01,2013-02-14 16:14:00,
2013-02-14 10:19:00,38.7,25.2,27.23,North,0,10.1,13.2,58,0.00,,---,0.00,VWS V14.01,2013-02-14 16:19:00,
2013-02-14 10:24:00,38.7,25.2,27.23,NW,315,5.4,13.2,58,0.00,,---,0.00,VWS V14.01,2013-02-14 16:24:00,
2013-02-14 10:29:00,38.7,25.2,27.23,NW,315,7.6,13.2,58,0.00,,---,0.00,VWS V14.01,2013-02-14 16:29:00,
2013-02-14 10:30:00,39.7,23.1,27.25,NNW,338,8.1,12.1,51,0.00,,---,0.00,VWS V14.01,2013-02-14 16:30:00,
2013-02-14 10:34:00,38.7,25.2,27.23,NW,315,5.6,8.7,58,0.00,,---,0.00,VWS V14.01,2013-02-14 16:34:00,
2013-02-14 10:39:00,38.7,25.2,27.23,NNE,22,10.5,10.5,58,0.00,,---,0.00,VWS V14.01,2013-02-14 16:39:00,
2013-02-14 10:44:00,38.7,25.2,27.23,NW,315,9.6,10.5,58,0.00,,---,0.00,VWS V14.01,2013-02-14 16:44:00,
2013-02-14 10:45:00,39.4,22.3,27.23,NW,315,5.8,9.6,50,0.00,,---,0.00,VWS V14.01,2013-02-14 16:45:00,
2013-02-14 10:49:00,40.1,24.4,27.26,NNW,338,7.4,10.3,53,0.00,,---,0.00,VWS V14.01,2013-02-14 16:49:00,
2013-02-14 10:54:00,40.1,23.9,27.26,NW,315,10.7,10.7,52,0.00,,---,0.00,VWS V14.01,2013-02-14 16:54:00,
2013-02-14 10:59:00,40.1,23.9,27.26,NNW,338,9.6,13.0,52,0.00,,---,0.00,VWS V14.01,2013-02-14 16:59:00,
2013-02-14 11:00:00,39.4,22.8,27.23,North,0,7.6,7.8,51,0.00,,---,0.00,VWS V14.01,2013-02-14 17:00:00,
2013-02-14 11:04:00,40.1,23.9,27.26,NNW,338,7.8,11.0,52,0.00,,---,0.00,VWS V14.01,2013-02-14 17:04:00,
2013-02-14 11:09:00,39.7,23.1,27.26,NW,315,7.6,12.1,51,0.00,,---,0.00,VWS V14.01,2013-02-14 17:09:00,
2013-02-14 11:14:00,39.7,23.1,27.26,NNE,22,10.3,12.1,51,0.00,,---,0.00,VWS V14.01,2013-02-14 17:14:00,
2013-02-14 11:15:00,38.1,22.1,27.25,NW,315,5.4,12.1,52,0.00,,---,0.00,VWS V14.01,2013-02-14 17:15:00,
2013-02-14 11:19:00,39.7,23.1,27.26,NW,315,7.6,12.1,51,0.00,,---,0.00,VWS V14.01,2013-02-14 17:19:00,
2013-02-14 11:24:00,39.7,23.1,27.26,West,270,8.5,12.1,51,0.00,,---,0.00,VWS V14.01,2013-02-14 17:24:00,
2013-02-14 11:29:00,39.7,23.1,27.26,NNW,338,8.1,12.1,51,0.00,,---,0.00,VWS V14.01,2013-02-14 17:29:00,
2013-02-14 11:30:00,39.4,22.8,27.28,NW,315,12.8,12.8,51,0.00,,---,0.00,VWS V14.01,2013-02-14 17:30:00,
2013-02-14 11:34:00,39.7,23.1,27.23,NNW,338,8.1,8.1,51,0.00,,---,0.00,VWS V14.01,2013-02-14 17:34:00,
2013-02-14 11:39:00,39.7,23.1,27.23,NNW,338,8.1,8.1,51,0.00,,---,0.00,VWS V14.01,2013-02-14 17:39:00,
2013-02-14 11:44:00,39.4,22.3,27.23,NW,315,5.8,9.6,50,0.00,,---,0.00,VWS V14.01,2013-02-14 17:44:00,
2013-02-14 11:45:00,38.7,25.6,27.28,NNW,338,6.9,12.8,59,0.00,,---,0.00,VWS V14.01,2013-02-14 17:45:00,
2013-02-14 11:49:00,39.4,22.3,27.23,North,0,6.3,6.3,50,0.00,,---,0.00,VWS V14.01,2013-02-14 17:49:00,
2013-02-14 11:54:00,39.4,22.8,27.23,NNW,338,6.3,7.8,51,0.00,,---,0.00,VWS V14.01,2013-02-14 17:54:00,
2013-02-14 11:59:00,39.4,22.8,27.23,North,0,7.6,7.8,51,0.00,,---,0.00,VWS V14.01,2013-02-14 17:59:00,
2013-02-14 12:00:00,37.4,28.5,27.28,NNW,338,17.5,17.5,70,0.00,,---,0.00,VWS V14.01,2013-02-14 18:00:00,
2013-02-14 12:04:00,38.5,21.5,27.26,NNW,338,6.3,7.6,50,0.00,,---,0.00,VWS V14.01,2013-02-14 18:04:00,
2013-02-14 12:09:00,38.5,21.9,27.26,NW,315,7.8,12.1,51,0.00,,---,0.00,VWS V14.01,2013-02-14 18:09:00,
2013-02-14 12:14:00,38.1,22.1,27.26,NW,315,5.4,12.1,52,0.00,,---,0.00,VWS V14.01,2013-02-14 18:14:00,
2013-02-14 12:15:00,37.4,28.5,27.28,NW,315,4.3,17.5,70,0.00,,---,0.00,VWS V14.01,2013-02-14 18:15:00,
2013-02-14 12:19:00,38.1,22.1,27.28,NNW,338,5.6,5.6,52,0.00,,---,0.00,VWS V14.01,2013-02-14 18:19:00,
2013-02-14 12:24:00,38.1,22.1,27.28,NW,315,6.3,6.3,52,0.00,,---,0.00,VWS V14.01,2013-02-14 18:24:00,
2013-02-14 12:29:00,38.1,22.1,27.28,NW,315,12.8,12.8,52,0.00,,---,0.00,VWS V14.01,2013-02-14 18:29:00,
2013-02-14 12:34:00,39.4,22.8,27.28,NW,315,11.0,12.8,51,0.00,,---,0.00,VWS V14.01,2013-02-14 18:34:00,
2013-02-14 12:39:00,38.7,23.9,27.28,NW,315,8.7,12.8,55,0.00,,---,0.00,VWS V14.01,2013-02-14 18:39:00,
2013-02-14 12:44:00,38.7,25.6,27.28,NNW,338,6.9,12.8,59,0.00,,---,0.00,VWS V14.01,2013-02-14 18:44:00,
2013-02-14 12:45:00,39.0,23.4,27.28,NW,315,17.5,17.7,53,0.00,,---,0.00,VWS V14.01,2013-02-14 18:45:00,
2013-02-14 12:49:00,38.5,27.4,27.28,NW,315,7.8,12.5,64,0.00,,---,0.00,VWS V14.01,2013-02-14 18:49:00,
2013-02-14 12:54:00,38.5,27.4,27.28,NW,315,6.5,12.5,64,0.00,,---,0.00,VWS V14.01,2013-02-14 18:54:00,
2013-02-14 12:59:00,37.4,28.5,27.28,NNW,338,17.5,17.5,70,0.00,,---,0.00,VWS V14.01,2013-02-14 18:59:00,
2013-02-14 13:04:00,37.4,28.5,27.28,North,0,6.0,17.5,70,0.00,,---,0.00,VWS V14.01,2013-02-14 19:04:00,
2013-02-14 13:09:00,37.4,28.5,27.28,North,0,6.0,17.5,70,0.00,,---,0.00,VWS V14.01,2013-02-14 19:09:00,
2013-02-14 13:14:00,37.4,28.5,27.28,NW,315,4.3,17.5,70,0.00,,---,0.00,VWS V14.01,2013-02-14 19:14:00,
2013-02-14 13:15:00,40.1,23.4,27.28,NW,315,7.8,19.9,51,0.00,,---,0.00,VWS V14.01,2013-02-14 19:15:00,
2013-02-14 13:19:00,37.4,28.5,27.28,NW,315,12.8,12.8,70,0.00,,---,0.00,VWS V14.01,2013-02-14 19:19:00,
2013-02-14 13:24:00,36.7,28.5,27.28,NW,315,12.1,17.7,72,0.00,,---,0.00,VWS V14.01,2013-02-14 19:24:00,
2013-02-14 13:29:00,37.6,27.6,27.28,NW,315,8.1,17.7,67,0.00,,---,0.00,VWS V14.01,2013-02-14 19:29:00,
2013-02-14 13:30:00,41.0,23.3,27.28,NNW,338,15.7,15.7,49,0.00,,---,0.00,VWS V14.01,2013-02-14 19:30:00,
2013-02-14 13:34:00,37.6,27.6,27.28,NW,315,10.3,17.7,67,0.00,,---,0.00,VWS V14.01,2013-02-14 19:34:00,
2013-02-14 13:39:00,37.6,27.6,27.28,NW,315,14.8,17.7,67,0.00,,---,0.00,VWS V14.01,2013-02-14 19:39:00,
2013-02-14 13:44:00,39.0,23.4,27.28,NW,315,16.6,17.7,53,0.00,,---,0.00,VWS V14.01,2013-02-14 19:44:00,
2013-02-14 13:45:00,40.3,19.6,27.28,NW,315,19.9,19.9,43,0.00,,---,0.00,VWS V14.01,2013-02-14 19:45:00,
2013-02-14 13:49:00,37.6,25.4,27.28,NW,315,19.9,19.9,61,0.00,,---,0.00,VWS V14.01,2013-02-14 19:49:00,
2013-02-14 13:54:00,37.6,25.4,27.28,NW,315,10.7,19.9,61,0.00,,---,0.00,VWS V14.01,2013-02-14 19:54:00,
2013-02-14 13:59:00,37.9,25.3,27.28,NW,315,11.0,19.9,60,0.00,,---,0.00,VWS V14.01,2013-02-14 19:59:00,
2013-02-14 14:00:00,39.9,19.2,27.28,NW,315,11.0,22.4,43,0.00,,---,0.00,VWS V14.01,2013-02-14 20:00:00,
2013-02-14 14:04:00,38.7,24.3,27.28,NW,315,9.6,19.9,56,0.00,,---,0.00,VWS V14.01,2013-02-14 20:04:00,
2013-02-14 14:09:00,38.7,24.3,27.28,NNW,338,6.5,19.9,56,0.00,,---,0.00,VWS V14.01,2013-02-14 20:09:00,
2013-02-14 14:14:00,40.1,23.4,27.28,NW,315,12.8,19.9,51,0.00,,---,0.00,VWS V14.01,2013-02-14 20:14:00,
2013-02-14 14:15:00,39.0,19.5,27.28,NW,315,15.4,17.2,45,0.00,,---,0.00,VWS V14.01,2013-02-14 20:15:00,
2013-02-14 14:19:00,41.0,23.3,27.28,North,0,10.1,10.1,49,0.00,,---,0.00,VWS V14.01,2013-02-14 20:19:00,
2013-02-14 14:24:00,41.0,23.3,27.28,North,0,10.7,13.2,49,0.00,,---,0.00,VWS V14.01,2013-02-14 20:24:00,
2013-02-14 14:29:00,41.0,23.3,27.28,NW,315,13.2,13.2,49,0.00,,---,0.00,VWS V14.01,2013-02-14 20:29:00,
2013-02-14 14:30:00,38.7,18.6,27.31,NW,315,15.2,18.1,44,0.00,,---,0.00,VWS V14.01,2013-02-14 20:30:00,
2013-02-14 14:34:00,40.6,21.0,27.28,North,0,11.0,15.7,45,0.00,,---,0.00,VWS V14.01,2013-02-14 20:34:00,
2013-02-14 14:39:00,40.5,20.8,27.28,NNW,338,13.2,15.7,45,0.00,,---,0.00,VWS V14.01,2013-02-14 20:39:00,
2013-02-14 14:44:00,40.5,20.8,27.28,NW,315,17.0,17.0,45,0.00,,---,0.00,VWS V14.01,2013-02-14 20:44:00,
2013-02-14 14:49:00,40.1,20.0,27.28,NNW,338,22.4,22.4,44,0.00,,---,0.00,VWS V14.01,2013-02-14 20:49:00,
2013-02-14 14:54:00,40.1,20.0,27.28,NW,315,15.2,22.4,44,0.00,,---,0.00,VWS V14.01,2013-02-14 20:54:00,
2013-02-14 14:59:00,39.9,19.2,27.28,North,0,15.2,22.4,43,0.00,,---,0.00,VWS V14.01,2013-02-14 20:59:00,
2013-02-14 15:04:00,39.4,19.3,27.28,WNW,292,16.3,16.3,44,0.00,,---,0.00,VWS V14.01,2013-02-14 21:04:00,
2013-02-14 15:09:00,38.8,18.8,27.28,NW,315,17.2,17.2,44,0.00,,---,0.00,VWS V14.01,2013-02-14 21:09:00,
2013-02-14 15:14:00,39.0,19.5,27.28,NW,315,15.4,17.2,45,0.00,,---,0.00,VWS V14.01,2013-02-14 21:14:00,
2013-02-14 15:15:00,38.7,18.6,27.31,NW,315,12.3,21.3,44,0.00,,---,0.00,VWS V14.01,2013-02-14 21:15:00,
2013-02-14 15:19:00,39.0,19.5,27.28,NNW,338,12.5,15.4,45,0.00,,---,0.00,VWS V14.01,2013-02-14 21:19:00,
2013-02-14 15:24:00,38.7,18.6,27.31,NW,315,12.8,18.1,44,0.00,,---,0.00,VWS V14.01,2013-02-14 21:24:00,
2013-02-14 15:29:00,38.7,18.6,27.31,NW,315,15.2,18.1,44,0.00,,---,0.00,VWS V14.01,2013-02-14 21:29:00,
2013-02-14 15:34:00,38.7,18.6,27.31,North,0,10.3,15.2,44,0.00,,---,0.00,VWS V14.01,2013-02-14 21:34:00,
2013-02-14 15:39:00,38.7,18.6,27.31,NW,315,16.1,21.3,44,0.00,,---,0.00,VWS V14.01,2013-02-14 21:39:00,
2013-02-14 15:44:00,38.7,18.6,27.31,North,0,13.9,21.3,44,0.00,,---,0.00,VWS V14.01,2013-02-14 21:44:00,
2013-02-14 15:45:00,37.9,16.9,27.31,NW,315,13.0,13.0,42,0.00,,---,0.00,VWS V14.01,2013-02-14 21:45:00,
2013-02-14 15:49:00,38.7,18.6,27.28,North,0,9.4,21.3,44,0.00,,---,0.00,VWS V14.01,2013-02-14 21:49:00,
2013-02-14 15:54:00,38.7,18.6,27.28,North,0,19.9,21.3,44,0.00,,---,0.00,VWS V14.01,2013-02-14 21:54:00,
2013-02-14 15:59:00,38.7,18.6,27.28,NNW,338,13.0,21.3,44,0.00,,---,0.00,VWS V14.01,2013-02-14 21:59:00,
2013-02-14 16:04:00,38.7,18.6,27.28,NNW,338,13.0,21.3,44,0.00,,---,0.00,VWS V14.01,2013-02-14 22:04:00,
2013-02-14 16:09:00,38.7,18.6,27.28,North,0,10.5,21.3,44,0.00,,---,0.00,VWS V14.01,2013-02-14 22:09:00,
2013-02-14 16:14:00,38.7,18.6,27.31,North,0,14.8,21.3,44,0.00,,---,0.00,VWS V14.01,2013-02-14 22:14:00,
2013-02-14 16:19:00,38.7,18.6,27.31,NW,315,10.1,12.3,44,0.00,,---,0.00,VWS V14.01,2013-02-14 22:19:00,
2013-02-14 16:24:00,37.9,16.9,27.31,NNW,338,10.5,12.3,42,0.00,,---,0.00,VWS V14.01,2013-02-14 22:24:00,
2013-02-14 16:29:00,37.9,16.9,27.31,NNW,338,12.3,12.3,42,0.00,,---,0.00,VWS V14.01,2013-02-14 22:29:00,
2013-02-14 16:30:00,36.9,16.5,27.34,North,0,8.1,17.5,43,0.00,,---,0.00,VWS V14.01,2013-02-14 22:30:00,
2013-02-14 16:34:00,37.9,16.9,27.31,North,0,8.7,12.3,42,0.00,,---,0.00,VWS V14.01,2013-02-14 22:34:00,
2013-02-14 16:39:00,37.9,16.9,27.31,NE,45,7.2,12.3,42,0.00,,---,0.00,VWS V14.01,2013-02-14 22:39:00,
2013-02-14 16:44:00,37.9,16.9,27.31,NW,315,10.3,12.3,42,0.00,,---,0.00,VWS V14.01,2013-02-14 22:44:00,
2013-02-14 16:45:00,35.4,15.2,27.34,NNW,338,9.6,15.2,43,0.00,,---,0.00,VWS V14.01,2013-02-14 22:45:00,
2013-02-14 16:49:00,37.9,16.9,27.31,NW,315,9.8,13.0,42,0.00,,---,0.00,VWS V14.01,2013-02-14 22:49:00,
2013-02-14 16:54:00,37.9,16.9,27.31,NW,315,10.1,13.0,42,0.00,,---,0.00,VWS V14.01,2013-02-14 22:54:00,
2013-02-14 16:59:00,37.9,16.9,27.31,NW,315,12.8,13.0,42,0.00,,---,0.00,VWS V14.01,2013-02-14 22:59:00,
2013-02-14 17:00:00,34.9,14.7,27.34,North,0,7.4,15.4,43,0.00,,---,0.00,VWS V14.01,2013-02-14 23:00:00,
2013-02-14 17:04:00,37.6,17.1,27.31,North,0,9.2,13.0,43,0.00,,---,0.00,VWS V14.01,2013-02-14 23:04:00,
2013-02-14 17:09:00,37.4,17.0,27.34,North,0,17.5,17.5,43,0.00,,---,0.00,VWS V14.01,2013-02-14 23:09:00,
2013-02-14 17:14:00,37.4,17.0,27.34,North,0,12.8,17.5,43,0.00,,---,0.00,VWS V14.01,2013-02-14 23:14:00,
2013-02-14 17:15:00,34.3,14.2,27.37,North,0,6.3,11.0,43,0.00,,---,0.00,VWS V14.01,2013-02-14 23:15:00,
2013-02-14 17:19:00,36.9,16.5,27.34,NW,315,6.5,17.5,43,0.00,,---,0.00,VWS V14.01,2013-02-14 23:19:00,
2013-02-14 17:24:00,36.9,16.5,27.34,NE,45,14.5,17.5,43,0.00,,---,0.00,VWS V14.01,2013-02-14 23:24:00,
2013-02-14 17:29:00,36.9,16.5,27.34,North,0,8.1,17.5,43,0.00,,---,0.00,VWS V14.01,2013-02-14 23:29:00,
2013-02-14 17:30:00,33.1,13.6,27.37,North,0,7.6,10.3,44,0.89,,---,0.89,VWS V14.01,2013-02-14 23:30:00,
2013-02-14 17:34:00,36.9,16.5,27.34,North,0,8.1,13.2,43,0.00,,---,0.00,VWS V14.01,2013-02-14 23:34:00,
2013-02-14 17:39:00,36.9,16.5,27.34,North,0,12.1,13.2,43,0.00,,---,0.00,VWS V14.01,2013-02-14 23:39:00,
2013-02-14 17:44:00,35.4,15.2,27.34,NW,315,13.6,13.6,43,0.00,,---,0.00,VWS V14.01,2013-02-14 23:44:00,
2013-02-14 17:45:00,31.1,11.8,27.37,North,0,4.0,10.5,44,0.00,,---,0.00,VWS V14.01,2013-02-14 23:45:00,
2013-02-14 17:49:00,35.4,15.2,27.34,North,0,12.5,12.5,43,0.00,,---,0.00,VWS V14.01,2013-02-14 23:49:00,
2013-02-14 17:54:00,34.9,14.7,27.34,North,0,13.2,15.4,43,0.00,,---,0.00,VWS V14.01,2013-02-14 23:54:00,
2013-02-14 17:59:00,34.9,14.7,27.34,NNW,338,7.4,15.4,43,0.00,,---,0.00,VWS V14.01,2013-02-14 23:59:00,
2013-02-14 18:00:00,29.1,10.4,27.40,North,0,5.6,5.6,45,0.00,,---,0.00,VWS V14.01,2013-02-15 00:00:00,
2013-02-14 18:04:00,34.3,14.2,27.34,NW,315,4.0,7.8,43,0.00,,---,0.00,VWS V14.01,2013-02-15 00:04:00,
2013-02-14 18:09:00,34.3,14.2,27.34,North,0,4.3,11.0,43,0.00,,---,0.00,VWS V14.01,2013-02-15 00:09:00,
2013-02-14 18:14:00,34.3,14.2,27.37,NW,315,11.0,11.0,43,0.00,,---,0.00,VWS V14.01,2013-02-15 00:14:00,
2013-02-14 18:15:00,28.9,10.3,27.34,North,0,4.0,5.6,45,0.00,,---,0.00,VWS V14.01,2013-02-15 00:15:00,
2013-02-14 18:19:00,34.3,14.2,27.37,North,0,8.7,9.8,43,0.00,,---,0.00,VWS V14.01,2013-02-15 00:19:00,
2013-02-14 18:24:00,33.4,13.4,27.37,North,0,7.8,9.8,43,0.00,,---,0.00,VWS V14.01,2013-02-15 00:24:00,
2013-02-14 18:29:00,33.1,13.6,27.37,North,0,7.6,10.3,44,0.00,,---,0.00,VWS V14.01,2013-02-15 00:29:00,
2013-02-14 18:34:00,32.5,13.1,27.37,NW,315,10.5,10.5,44,0.89,,---,0.89,VWS V14.01,2013-02-15 00:34:00,
2013-02-14 18:39:00,32.5,13.1,27.37,North,0,10.3,10.5,44,0.00,,---,0.00,VWS V14.01,2013-02-15 00:39:00,
2013-02-14 18:44:00,32.2,12.7,27.37,NW,315,6.0,10.5,44,0.00,,---,0.00,VWS V14.01,2013-02-15 00:44:00,
2013-02-14 18:45:00,25.7,8.3,27.37,NW,315,2.5,4.3,47,0.00,,---,0.00,VWS V14.01,2013-02-15 00:45:00,
2013-02-14 18:49:00,31.1,11.8,27.37,North,0,4.7,4.7,44,0.00,,---,0.00,VWS V14.01,2013-02-15 00:49:00,
2013-02-14 18:54:00,31.1,11.8,27.37,North,0,5.6,5.6,44,0.00,,---,0.00,VWS V14.01,2013-02-15 00:54:00,
2013-02-14 18:59:00,31.1,11.8,27.40,North,0,5.6,5.6,44,0.00,,---,0.00,VWS V14.01,2013-02-15 00:59:00,
2013-02-14 19:00:00,24.4,9.8,27.37,North,0,3.4,3.6,53,0.00,,---,0.00,VWS V14.01,2013-02-15 01:00:00,
2013-02-14 19:04:00,28.9,10.3,27.34,North,0,4.9,5.6,45,0.00,,---,0.00,VWS V14.01,2013-02-15 01:04:00,
2013-02-14 19:09:00,28.9,10.3,27.34,North,0,4.3,5.6,45,0.00,,---,0.00,VWS V14.01,2013-02-15 01:09:00,
2013-02-14 19:14:00,28.9,10.3,27.34,North,0,4.3,5.6,45,0.00,,---,0.00,VWS V14.01,2013-02-15 01:14:00,
2013-02-14 19:15:00,24.4,12.2,27.40,North,0,5.8,7.8,59,0.00,,---,0.00,VWS V14.01,2013-02-15 01:15:00,
2013-02-14 19:19:00,26.1,8.1,27.34,NW,315,3.6,4.0,46,0.00,,---,0.00,VWS V14.01,2013-02-15 01:19:00,
2013-02-14 19:24:00,25.7,8.3,27.37,NNW,338,3.4,4.3,47,0.00,,---,0.00,VWS V14.01,2013-02-15 01:24:00,
2013-02-14 19:29:00,25.7,8.3,27.37,North,0,3.6,4.3,47,0.00,,---,0.00,VWS V14.01,2013-02-15 01:29:00,
2013-02-14 19:30:00,24.4,12.9,27.37,North,0,5.8,5.8,61,0.00,,---,0.00,VWS V14.01,2013-02-15 01:30:00,
2013-02-14 19:34:00,25.7,8.3,27.37,North,0,2.9,4.3,47,0.00,,---,0.00,VWS V14.01,2013-02-15 01:34:00,
2013-02-14 19:39:00,25.7,8.3,27.37,North,0,2.7,4.3,47,0.00,,---,0.00,VWS V14.01,2013-02-15 01:39:00,
2013-02-14 19:44:00,25.7,8.3,27.37,NW,315,3.1,4.3,47,0.00,,---,0.00,VWS V14.01,2013-02-15 01:44:00,
2013-02-14 19:49:00,25.7,8.3,27.37,NNW,338,2.7,3.6,47,0.00,,---,0.00,VWS V14.01,2013-02-15 01:49:00,
2013-02-14 19:54:00,24.4,9.8,27.37,NW,315,2.2,3.6,53,0.00,,---,0.00,VWS V14.01,2013-02-15 01:54:00,
2013-02-14 19:59:00,24.4,9.8,27.37,North,0,3.4,3.6,53,0.00,,---,0.00,VWS V14.01,2013-02-15 01:59:00,
2013-02-14 20:00:00,24.4,12.9,27.40,North,0,3.4,5.8,61,0.00,,---,0.00,VWS V14.01,2013-02-15 02:00:00,
2013-02-14 20:04:00,24.4,9.8,27.40,NNW,338,5.8,5.8,53,0.00,,---,0.00,VWS V14.01,2013-02-15 02:04:00,
2013-02-14 20:09:00,24.4,9.8,27.40,North,0,7.8,7.8,53,0.00,,---,0.00,VWS V14.01,2013-02-15 02:09:00,
2013-02-14 20:14:00,24.4,12.2,27.40,North,0,5.8,7.8,59,0.00,,---,0.00,VWS V14.01,2013-02-15 02:14:00,
2013-02-14 20:15:00,22.8,16.1,27.40,NW,315,3.1,4.7,75,0.00,,---,0.00,VWS V14.01,2013-02-15 02:15:00,
2013-02-14 20:19:00,24.4,12.2,27.40,North,0,5.8,5.8,59,0.00,,---,0.00,VWS V14.01,2013-02-15 02:19:00,
2013-02-14 20:24:00,24.4,12.9,27.37,North,0,5.8,5.8,61,0.00,,---,0.00,VWS V14.01,2013-02-15 02:24:00,
2013-02-14 20:29:00,24.4,12.9,27.37,North,0,5.8,5.8,61,0.00,,---,0.00,VWS V14.01,2013-02-15 02:29:00,
2013-02-14 20:34:00,24.4,12.9,27.37,North,0,4.9,5.8,61,0.00,,---,0.00,VWS V14.01,2013-02-15 02:34:00,
2013-02-14 20:39:00,24.4,12.9,27.40,NNW,338,3.4,5.8,61,0.00,,---,0.00,VWS V14.01,2013-02-15 02:39:00,
2013-02-14 20:44:00,24.4,12.9,27.40,North,0,3.6,5.8,61,0.00,,---,0.00,VWS V14.01,2013-02-15 02:44:00,
2013-02-14 20:49:00,24.4,12.9,27.40,North,0,4.9,5.8,61,0.00,,---,0.00,VWS V14.01,2013-02-15 02:49:00,
2013-02-14 20:54:00,24.4,12.9,27.40,North,0,3.1,5.8,61,0.00,,---,0.00,VWS V14.01,2013-02-15 02:54:00,
2013-02-14 20:59:00,24.4,12.9,27.40,North,0,3.4,5.8,61,0.00,,---,0.00,VWS V14.01,2013-02-15 02:59:00,
2013-02-14 21:00:00,19.9,12.7,27.43,NW,315,2.7,4.7,73,0.00,,---,0.00,VWS V14.01,2013-02-15 03:00:00,
2013-02-14 21:04:00,24.4,12.9,27.40,North,0,3.4,3.4,61,0.00,,---,0.00,VWS V14.01,2013-02-15 03:04:00,
2013-02-14 21:09:00,22.8,16.1,27.40,NNW,338,3.6,4.7,75,0.00,,---,0.00,VWS V14.01,2013-02-15 03:09:00,
2013-02-14 21:14:00,22.8,16.1,27.40,NW,315,2.9,4.7,75,0.00,,---,0.00,VWS V14.01,2013-02-15 03:14:00,
2013-02-14 21:15:00,18.3,11.4,27.43,North,0,2.5,2.7,74,0.00,,---,0.00,VWS V14.01,2013-02-15 03:15:00,
2013-02-14 21:19:00,22.8,16.1,27.40,NW,315,3.1,3.1,75,0.00,,---,0.00,VWS V14.01,2013-02-15 03:19:00,
2013-02-14 21:24:00,22.3,15.3,27.43,North,0,3.6,3.6,74,0.00,,---,0.00,VWS V14.01,2013-02-15 03:24:00,
2013-02-14 21:29:00,22.3,15.3,27.43,NNW,338,4.3,4.3,74,0.00,,---,0.00,VWS V14.01,2013-02-15 03:29:00,
2013-02-14 21:34:00,22.3,15.3,27.43,NNW,338,4.3,4.3,74,0.00,,---,0.00,VWS V14.01,2013-02-15 03:34:00,
2013-02-14 21:39:00,22.3,15.3,27.43,North,0,4.3,4.7,74,0.00,,---,0.00,VWS V14.01,2013-02-15 03:39:00,
2013-02-14 21:44:00,22.3,15.3,27.43,North,0,4.3,4.7,74,0.00,,---,0.00,VWS V14.01,2013-02-15 03:44:00,
2013-02-14 21:49:00,21.0,13.7,27.43,North,0,4.3,4.7,73,0.00,,---,0.00,VWS V14.01,2013-02-15 03:49:00,
2013-02-14 21:54:00,20.8,13.6,27.43,North,0,3.8,4.7,73,0.00,,---,0.00,VWS V14.01,2013-02-15 03:54:00,
2013-02-14 21:59:00,19.9,12.7,27.43,North,0,3.8,4.7,73,0.00,,---,0.00,VWS V14.01,2013-02-15 03:59:00,
2013-02-14 22:00:00,16.2,10.8,27.43,North,0,0.0,3.8,79,0.00,,---,0.00,VWS V14.01,2013-02-15 04:00:00,
2013-02-14 22:04:00,19.9,12.7,27.43,NW,315,2.7,2.7,73,0.00,,---,0.00,VWS V14.01,2013-02-15 04:04:00,
2013-02-14 22:09:00,19.9,12.7,27.43,North,0,2.7,2.7,73,0.00,,---,0.00,VWS V14.01,2013-02-15 04:09:00,
2013-02-14 22:14:00,18.3,11.4,27.43,North,0,2.5,2.7,74,0.00,,---,0.00,VWS V14.01,2013-02-15 04:14:00,
2013-02-14 22:19:00,18.0,12.0,27.43,NW,315,3.1,3.1,77,0.00,,---,0.00,VWS V14.01,2013-02-15 04:19:00,
2013-02-14 22:24:00,18.1,13.0,27.43,NNW,338,2.9,3.6,80,0.00,,---,0.00,VWS V14.01,2013-02-15 04:24:00,
2013-02-14 22:29:00,18.1,13.0,27.43,North,0,2.7,3.8,80,0.00,,---,0.00,VWS V14.01,2013-02-15 04:29:00,
2013-02-14 22:34:00,18.1,13.0,27.43,North,0,2.9,3.8,80,0.00,,---,0.00,VWS V14.01,2013-02-15 04:34:00,
2013-02-14 22:39:00,17.6,12.8,27.43,NW,315,1.1,3.8,81,0.00,,---,0.00,VWS V14.01,2013-02-15 04:39:00,
2013-02-14 22:44:00,17.2,12.1,27.43,WNW,292,3.1,3.8,80,0.00,,---,0.00,VWS V14.01,2013-02-15 04:44:00,
2013-02-14 22:45:00,14.2,8.9,27.43,North,0,3.4,3.6,79,0.00,,---,0.00,VWS V14.01,2013-02-15 04:45:00,
2013-02-14 22:49:00,17.2,12.1,27.43,North,0,0.0,3.8,80,0.00,,---,0.00,VWS V14.01,2013-02-15 04:49:00,
2013-02-14 22:54:00,17.2,12.1,27.43,North,0,0.0,3.8,80,0.00,,---,0.00,VWS V14.01,2013-02-15 04:54:00,
2013-02-14 22:59:00,16.2,10.8,27.43,North,0,0.0,3.8,79,0.00,,---,0.00,VWS V14.01,2013-02-15 04:59:00,
2013-02-14 23:00:00,16.2,10.8,27.43,North,0,0.0,3.8,79,0.00,,---,0.00,VWS V14.01,2013-02-15 05:00:00,
2013-02-14 23:05:00,16.2,10.8,27.43,North,0,0.0,0.0,79,0.00,,---,0.00,VWS V14.01,2013-02-15 05:05:00,
2013-02-14 23:10:00,16.7,12.2,27.43,NNW,338,2.9,2.9,82,0.00,,---,0.00,VWS V14.01,2013-02-15 05:10:00,
2013-02-14 23:15:00,16.9,13.4,27.43,NNW,338,2.9,3.4,86,0.00,,---,0.00,VWS V14.01,2013-02-15 05:15:00,
2013-02-14 23:20:00,16.9,13.4,27.43,NNW,338,2.5,3.4,86,0.00,,---,0.00,VWS V14.01,2013-02-15 05:20:00,
2013-02-14 23:25:00,16.7,13.5,27.43,NW,315,2.9,3.4,87,0.00,,---,0.00,VWS V14.01,2013-02-15 05:25:00,
2013-02-14 23:30:00,16.7,13.5,27.43,NW,315,2.9,3.4,87,0.00,,---,0.00,VWS V14.01,2013-02-15 05:30:00,
2013-02-14 23:35:00,16.0,12.3,27.43,North,0,3.1,3.4,85,0.00,,---,0.00,VWS V14.01,2013-02-15 05:35:00,
2013-02-14 23:40:00,16.0,12.3,27.43,North,0,3.4,3.4,85,0.00,,---,0.00,VWS V14.01,2013-02-15 05:40:00,
2013-02-14 23:45:00,14.2,8.9,27.43,North,0,3.4,3.6,79,0.00,,---,0.00,VWS V14.01,2013-02-15 05:45:00,
2013-02-14 23:50:00,14.0,8.4,27.43,NW,315,4.3,4.3,78,0.00,,---,0.00,VWS V14.01,2013-02-15 05:50:00,
2013-02-14 23:55:00,14.0,8.4,27.43,NW,315,2.2,4.3,78,0.00,,---,0.00,VWS V14.01,2013-02-15 05:55:00,